RYR515 LGSK-LGKP

Flight info

Callsign RYR515
Flight time N/A
Altitude 33000
Route SIGFO UM749 ROPOX UN132 KUPIS UN134 MASES UN139 KPC DCT
Aircraft B738/M-SABDE1FGHIJ1RWXYZ/LB1

Departure

Time 2026-04-10 13:12
Airport Skiathos Island National Airport (LGSK)

Arrival

Time N/A
Airport Karpathos Airport (LGKP)
Time Latitude Longitude Altitude Speed Heading
2026-04-10 12:45 39.17988 23.50276 38 ft 0 kts 289°
2026-04-10 12:54 39.17988 23.50277 38 ft 0 kts 289°
2026-04-10 13:05 39.17986 23.50284 38 ft 2 kts 289°
2026-04-10 13:05 39.17980 23.50308 38 ft 3 kts 289°
2026-04-10 13:05 39.17974 23.50331 37 ft 3 kts 296°
2026-04-10 13:05 39.17963 23.50350 35 ft 3 kts 328°
2026-04-10 13:06 39.17945 23.50360 39 ft 3 kts 354°
2026-04-10 13:06 39.17936 23.50360 41 ft 0 kts
2026-04-10 13:09 39.17949 23.50324 38 ft 3 kts 210°
2026-04-10 13:09 39.17914 23.50314 38 ft 9 kts 193°
2026-04-10 13:09 39.17839 23.50293 37 ft 13 kts 191°
2026-04-10 13:09 39.17723 23.50261 38 ft 17 kts 191°
2026-04-10 13:10 39.17615 23.50219 38 ft 16 kts 189°
2026-04-10 13:10 39.17527 23.50270 39 ft 12 kts 165°
2026-04-10 13:10 39.17407 23.50233 36 ft 28 kts 199°
2026-04-10 13:10 39.17190 23.50136 22 ft 31 kts 198°
2026-04-10 13:11 39.17059 23.50057 14 ft 13 kts 220°
2026-04-10 13:11 39.17023 23.50072 11 ft 4 kts 63°
2026-04-10 13:11 39.17066 23.50082 16 ft 10 kts 12°
2026-04-10 13:11 39.17125 23.50107 21 ft 11 kts 18°
2026-04-10 13:12 39.17447 23.50250 37 ft 92 kts 19°
2026-04-10 13:12 39.18296 23.50634 150 ft 157 kts 19°
2026-04-10 13:12 39.19336 23.51108 1146 ft 158 kts 20°
2026-04-10 13:12 39.20424 23.51584 2085 ft 168 kts 20°
2026-04-10 13:13 39.21528 23.52078 2907 ft 171 kts 19°
2026-04-10 13:13 39.22693 23.52609 3373 ft 189 kts 19°
2026-04-10 13:13 39.24024 23.53215 3779 ft 210 kts 17°
2026-04-10 13:13 39.25430 23.53829 4399 ft 218 kts 15°
2026-04-10 13:14 39.26887 23.54513 5091 ft 228 kts 25°
2026-04-10 13:14 39.27966 23.56014 5987 ft 237 kts 65°
2026-04-10 13:14 39.28086 23.58161 6726 ft 252 kts 104°
2026-04-10 13:14 39.27446 23.60290 7462 ft 257 kts 110°
2026-04-10 13:15 39.26639 23.62366 8201 ft 263 kts 130°
2026-04-10 13:15 39.25164 23.63719 8911 ft 262 kts 167°
2026-04-10 13:15 39.23389 23.63920 9651 ft 255 kts 195°
2026-04-10 13:15 39.21691 23.63340 10362 ft 253 kts 206°
2026-04-10 13:16 39.20025 23.62570 11065 ft 256 kts 208°
2026-04-10 13:16 39.18363 23.61800 11787 ft 261 kts 204°
2026-04-10 13:16 39.16467 23.61646 12240 ft 290 kts 179°
2026-04-10 13:16 39.14394 23.62030 12465 ft 317 kts 175°
2026-04-10 13:17 39.12158 23.62493 12953 ft 331 kts 176°
2026-04-10 13:17 39.09853 23.62896 13633 ft 339 kts 178°
2026-04-10 13:17 39.07423 23.63258 13845 ft 363 kts 178°
2026-04-10 13:17 39.04838 23.63624 14019 ft 385 kts 178°
2026-04-10 13:18 39.02101 23.64011 14173 ft 406 kts 178°
2026-04-10 13:18 38.99225 23.64423 14310 ft 426 kts 178°
2026-04-10 13:18 38.96222 23.64859 14557 ft 441 kts 177°
2026-04-10 13:18 38.93153 23.65313 15045 ft 447 kts 177°
2026-04-10 13:19 38.90043 23.65774 15654 ft 450 kts 177°
2026-04-10 13:19 38.86919 23.66238 16215 ft 454 kts 177°
2026-04-10 13:19 38.83763 23.66702 16733 ft 459 kts 177°
2026-04-10 13:19 38.80571 23.67170 17251 ft 464 kts 177°
2026-04-10 13:20 38.77398 23.67635 17782 ft 468 kts 177°
2026-04-10 13:20 38.74149 23.68109 18301 ft 472 kts 177°
2026-04-10 13:20 38.70872 23.68587 18792 ft 476 kts 177°
2026-04-10 13:20 38.67565 23.69070 19233 ft 480 kts 177°
2026-04-10 13:21 38.64235 23.69555 19689 ft 483 kts 177°
2026-04-10 13:21 38.60887 23.70042 20182 ft 485 kts 177°
2026-04-10 13:21 38.57523 23.70531 20641 ft 488 kts 177°
2026-04-10 13:21 38.54139 23.71022 21052 ft 492 kts 177°
2026-04-10 13:22 38.50726 23.71517 21454 ft 495 kts 177°
2026-04-10 13:22 38.47290 23.72015 21858 ft 499 kts 177°
2026-04-10 13:22 38.43822 23.72518 22250 ft 502 kts 177°
2026-04-10 13:22 38.40347 23.73021 22632 ft 504 kts 177°
2026-04-10 13:23 38.36849 23.73528 23060 ft 506 kts 177°
2026-04-10 13:23 38.33342 23.74034 23418 ft 509 kts 177°
2026-04-10 13:23 38.29808 23.74544 23737 ft 512 kts 177°
2026-04-10 13:23 38.26255 23.75056 24043 ft 515 kts 177°
2026-04-10 13:24 38.22690 23.75572 24387 ft 517 kts 176°
2026-04-10 13:24 38.19116 23.76243 24708 ft 521 kts 173°
2026-04-10 13:24 38.15557 23.77251 24973 ft 526 kts 167°
2026-04-10 13:24 38.12208 23.79148 25147 ft 535 kts 144°
2026-04-10 13:25 38.09565 23.82385 25458 ft 535 kts 129°
2026-04-10 13:25 38.07140 23.85962 25778 ft 536 kts 131°
2026-04-10 13:25 38.04307 23.89058 25916 ft 540 kts 149°
2026-04-10 13:25 38.00997 23.91297 26164 ft 539 kts 155°
2026-04-10 13:26 37.97608 23.93349 26390 ft 540 kts 155°
2026-04-10 13:26 37.94288 23.95587 26615 ft 541 kts 149°
2026-04-10 13:26 37.91163 23.98243 26927 ft 541 kts 144°
2026-04-10 13:26 37.88162 24.01117 27253 ft 540 kts 142°
2026-04-10 13:27 37.85193 24.04015 27551 ft 540 kts 143°
2026-04-10 13:27 37.82182 24.06866 27859 ft 540 kts 144°
2026-04-10 13:27 37.79136 24.09624 28360 ft 534 kts 145°
2026-04-10 13:27 37.76109 24.12271 29231 ft 524 kts 146°
2026-04-10 13:28 37.73124 24.14838 30102 ft 514 kts 146°
2026-04-10 13:28 37.70202 24.17343 30980 ft 501 kts 146°
2026-04-10 13:28 37.67391 24.19763 31802 ft 488 kts 146°
2026-04-10 13:28 37.64620 24.22159 32516 ft 481 kts 146°
2026-04-10 13:29 37.61854 24.24557 32822 ft 483 kts 146°
2026-04-10 13:29 37.59067 24.26971 32973 ft 489 kts 146°
2026-04-10 13:29 37.53500 24.32073 33063 ft 501 kts 140°
2026-04-10 13:30 37.48374 24.38171 33075 ft 513 kts 132°
2026-04-10 13:30 37.43449 24.44831 33067 ft 525 kts 132°
2026-04-10 13:31 37.38325 24.51483 33037 ft 534 kts 134°
2026-04-10 13:31 37.33051 24.58020 33051 ft 536 kts 135°
2026-04-10 13:32 37.27698 24.64565 33050 ft 536 kts 135°
2026-04-10 13:32 37.22353 24.71113 33057 ft 536 kts 135°
2026-04-10 13:33 37.17024 24.77655 33058 ft 536 kts 135°
2026-04-10 13:33 37.11690 24.84194 33054 ft 535 kts 135°
2026-04-10 13:34 37.06385 24.90679 33044 ft 535 kts 135°
2026-04-10 13:34 37.01058 24.97177 33047 ft 534 kts 135°
2026-04-10 13:35 36.95747 25.03644 33062 ft 533 kts 135°
2026-04-10 13:35 36.90427 25.10099 33051 ft 533 kts 135°
2026-04-10 13:36 36.85058 25.16484 33050 ft 533 kts 136°
2026-04-10 13:36 36.79671 25.22846 33056 ft 532 kts 135°
2026-04-10 13:37 36.74301 25.29198 33047 ft 532 kts 135°
2026-04-10 13:37 36.68938 25.35544 33067 ft 531 kts 135°
2026-04-10 13:38 36.63615 25.41840 33064 ft 531 kts 135°
2026-04-10 13:38 36.58315 25.48261 33058 ft 531 kts 134°
2026-04-10 13:39 36.53043 25.54696 33051 ft 531 kts 134°
2026-04-10 13:39 36.47763 25.61102 33019 ft 531 kts 134°
2026-04-10 13:40 36.42467 25.67495 33057 ft 531 kts 134°
2026-04-10 13:40 36.37161 25.73885 33056 ft 531 kts 134°
2026-04-10 13:41 36.31862 25.80260 33050 ft 531 kts 134°
2026-04-10 13:41 36.26595 25.86597 33062 ft 530 kts 133°
2026-04-10 13:42 36.22112 25.93764 32386 ft 522 kts 110°
2026-04-10 13:42 36.20840 25.97914 31722 ft 513 kts 104°
2026-04-10 13:42 36.19642 26.02075 30935 ft 514 kts 107°
2026-04-10 13:43 36.18230 26.06162 30137 ft 517 kts 111°
2026-04-10 13:43 36.16617 26.10136 29164 ft 518 kts 114°
2026-04-10 13:43 36.14939 26.14079 28233 ft 517 kts 114°